Location: B?dzyn
(51.5957°N, 19.4844°E)
Time: 07:12:40
(UTC+00:00)

Daily predictions for brighter satellites

Satellite Brightness Start Highest point End
(mag) Time Altitude Azimuth Time Altitude Azimuth Time Altitude Azimuth
Cosmos 2278 Rocket 4.3 19:28:12 10° WSW 19:33:19 34° NW 19:38:29 10° NNE
USA 215 4.0 19:30:25 10° ENE 19:36:47 56° N 19:43:09 10° WNW
Cosmos 1503 Rocket 4.0 19:33:24 10° S 19:38:29 62° ESE 19:43:35 10° NNE
Cosmos 2369 Rocket 2.3 19:36:32 10° SSW 19:42:08 63° ESE 19:47:45 10° NE
ASTEX 1 3.6 19:42:17 10° NNE 19:47:04 52° E 19:51:47 10° SSE
Cosmos 1354 Rocket 4.1 19:42:53 10° S 19:47:58 55° ESE 19:53:05 10° NNE
Cosmos 2297 Rocket 4.0 19:46:29 10° NNW 19:50:58 23° NE 19:55:25 10° E
Cosmos 1340 Rocket 4.3 19:53:28 10° NNW 19:56:57 32° W 20:00:23 10° SSW
Ariane Rocket 3.0 19:53:13 10° SSE 19:58:16 77° ENE 20:03:20 10° NNW
SAR-Lupe-2 3.6 19:55:27 10° SSE 19:59:02 84° ENE 20:02:39 10° NNW
CZ-4C R/B 2.4 19:56:37 10° S 20:00:32 34° ESE 20:05:21 10° NE
Okean 2 Rocket 3.2 19:56:20 10° NNW 20:00:42 73° W 20:05:02 10° S
Cosmos 2098 Rocket 4.4 19:58:40 10° NNE 20:00:52 17° ENE 20:03:16 10° ESE
ISS -3.8 19:57:35 10° W 20:00:56 86° S 20:04:17 10° E
Cosmos 1869 4.0 19:59:43 10° NNW 20:03:09 45° W 20:06:33 10° SSW
Cosmos 2263 4.2 19:57:42 10° SSW 20:03:19 67° ESE 20:08:55 10° NE
Cosmos 2151 Rocket 4.3 20:03:04 10° NNW 20:07:28 53° W 20:11:49 10° S
Cosmos 1777 Rocket 4.2 20:03:09 10° SSW 20:08:22 75° WNW 20:13:36 10° NNE
BREEZE-M DEB (TANK) 3.3 20:07:13 10° SSW 20:09:38 27° SE 20:14:42 10° E
SOZ 4.3 20:08:41 10° WSW 20:11:00 49° SSE 20:13:24 10° E
Cosmos 44 3.4 20:08:15 10° SSW 20:12:19 42° ESE 20:16:30 10° NE
Nadezhda 4 Rocket 4.0 20:08:18 10° S 20:14:36 74° E 20:20:56 10° NNE
Okean 1 Rocket 3.3 20:10:31 10° NNW 20:14:52 68° W 20:19:10 10° S
Lacrosse 5 rocket 2.8 20:11:50 10° WNW 20:15:28 36° N 20:19:08 10° ENE
Helios 1A 3.7 20:12:48 10° N 20:16:39 51° WNW 20:20:28 10° SW
Cosmos 1515 3.0 20:16:28 10° N 20:19:02 49° ENE 20:20:37 19° SSE
Cosmos 1975 Rocket 3.9 20:16:28 14° SSE 20:19:38 33° E 20:23:29 10° NNE
Cosmos 2221 Rocket 3.8 20:17:07 10° SSW 20:21:37 77° W 20:26:11 10° N
Cosmos 2285 Rocket 4.2 20:16:46 10° S 20:22:57 56° ESE 20:29:13 10° NNE
Cosmos 2227 Rocket 4.2 20:19:19 10° NNW 20:23:36 21° NE 20:27:52 10° E
Cosmos 2228 3.9 20:19:57 10° N 20:23:49 34° ENE 20:26:50 15° SE
Gbstr 26 Del rocket 3.6 20:20:23 10° W 20:25:20 86° SSW 20:31:31 10° ESE
Terra 3.7 20:21:40 10° SSW 20:25:35 26° W 20:29:32 10° NW
Cosmos 1455 Rocket 3.0 20:22:11 10° N 20:26:30 79° ENE 20:30:04 15° SSE
Cosmos 1867 4.3 20:22:49 10° S 20:27:37 33° ESE 20:32:27 10° NE
SPOT 3 Rocket 4.1 20:23:48 10° S 20:28:55 57° W 20:34:05 10° NNW
Cosmos 2026 Rocket 4.1 20:27:47 12° S 20:33:22 58° E 20:39:19 10° NNE
Cosmos 1428 Rocket 4.5 20:33:47 10° S 20:39:56 88° E 20:46:12 10° N
Cosmos 1898 Rocket 3.9 20:36:10 14° S 20:40:24 43° ESE 20:45:22 10° NE
ATLAS 5 CENTAUR R/B 4.3 20:38:34 10° NW 20:40:42 15° N 20:43:01 10° NE
Cosmos 1538 Rocket 4.2 20:38:11 10° NNW 20:43:33 69° WSW 20:47:45 16° S
Iridium 82 4.5 20:41:33 10° N 20:44:55 60° E 20:46:47 23° SSE
Cosmos 1553 Rocket 4.4 20:40:25 10° N 20:46:32 52° ENE 20:51:17 17° SE
USA 81 4.2 20:44:48 16° SSE 20:48:54 61° E 20:54:06 10° NNE
Cosmos 1812 3.7 20:48:23 10° NNW 20:51:15 31° W 20:53:43 12° SSW
PSLV R/B 4.5 20:49:19 14° SSW 20:51:39 34° W 20:54:34 10° NNW
ARIANE 5 R/B 3.5 20:53:15 17° SE 20:56:12 39° ENE 21:00:21 10° N
Cosmos 1092 Rocket 4.0 20:50:30 13° S 20:56:15 77° E 21:02:34 10° NNE
Cosmos 1900 4.3 20:52:47 10° SSW 20:57:46 69° SE 21:02:51 10° NE
ATLAS 2AS CENTAUR R/B 4.1 20:52:28 10° NW 20:58:46 36° NNE 21:04:55 10° E
BlueWalker 3 1.7 20:56:40 10° WNW 21:00:21 84° SSW 21:03:04 17° ESE
Cosmos 1025 Rocket 4.5 20:56:36 10° SW 21:00:37 36° WNW 21:04:41 10° N
Cosmos 1656 4.2 21:05:49 20° SSE 21:09:03 38° ESE 21:14:08 10° NE
DELTA 2 DEB (DPAF) 3.9 21:05:54 10° NNE 21:09:47 61° ESE 21:11:59 24° S
Aureole 1 Rocket 4.3 21:04:13 10° SSW 21:10:54 87° ESE 21:18:29 10° NNE
CZ-4C R/B 3.9 21:07:31 10° NNE 21:10:57 37° E 21:12:23 26° SE
Cosmos 2263 Rocket 4.1 21:06:52 10° NNW 21:11:22 24° NE 21:15:50 10° E
RESURS DK-1 2.3 21:10:58 10° NNW 21:14:59 76° ENE 21:17:10 26° SE
Cosmos 1544 Rocket 3.5 21:12:37 10° N 21:17:01 83° E 21:19:31 25° SSE
Meteor 2-20 Rocket 4.5 21:11:04 10° N 21:17:09 68° ENE 21:21:02 22° SSE
USA 215 3.5 21:12:58 10° ESE 21:19:29 74° NNE 21:26:02 10° WNW
Cosmos 372 Rocket 3.9 21:14:58 10° SSW 21:19:59 87° WNW 21:25:06 10° NNE
DNEPR-1 R/B 4.3 21:18:33 10° NW 21:22:29 39° WSW 21:24:33 24° S
Cosmos 2369 Rocket 4.0 21:21:28 10° WSW 21:26:32 32° NW 21:31:37 10° NNE
Cosmos 1400 Rocket 2.6 21:22:45 10° N 21:26:36 80° ENE 21:28:20 31° SSE
Cosmos 2058 3.8 21:25:46 25° SE 21:27:11 32° E 21:30:44 10° NNE
Cosmos 2112 Rocket 4.0 21:23:34 10° NNW 21:28:53 86° ENE 21:32:07 24° SSE
Cosmos 1782 3.2 21:30:03 10° N 21:33:37 46° ENE 21:35:07 29° SE
Cosmos 2297 Rocket 2.2 21:30:10 10° NNW 21:35:52 84° ENE 21:39:27 23° SSE
ISS -3.1 21:34:22 10° W 21:37:27 34° SSW 21:37:42 34° SSW
Cosmos 1937 Rocket 3.4 21:34:19 16° SSW 21:38:23 90° WNW 21:43:33 10° NNE
Cosmos 2098 Rocket 3.6 21:36:05 10° NNW 21:39:03 35° W 21:40:46 22° SW
Cosmos 1680 Rocket 3.6 21:34:16 10° NNW 21:39:31 69° WSW 21:42:31 26° S
Cosmos 1862 4.4 21:43:53 23° ESE 21:44:49 26° E 21:47:55 10° NNE
ALOS 2 2.7 21:44:36 28° SSE 21:46:50 67° ENE 21:51:13 10° N
Cosmos 1980 Rocket 4.0 21:46:39 13° ESE 21:48:27 15° E 21:51:26 10° ENE
CZ-4C R/B 2.8 21:43:56 10° WSW 21:48:29 53° NW 21:54:22 10° NE
Cosmos 858 Rocket 4.4 21:48:12 20° SSW 21:51:50 88° ESE 21:57:03 10° NNE
Cosmos 1697 Rocket 3.6 21:50:21 24° SE 21:52:37 32° ESE 21:57:36 10° NE
Lacrosse 5 rocket 1.7 21:49:28 10° WNW 21:53:22 58° NNE 21:57:14 10° ESE
Cosmos 2360 4.3 21:51:09 25° S 21:54:25 57° ESE 22:00:00 10° NE
MetOp-A 3.5 21:55:24 32° SSW 21:56:54 57° WSW 22:00:40 10° NNW
Cosmos 1356 Rocket 4.3 21:54:04 10° N 21:57:50 37° ENE 21:59:46 23° ESE
Cosmos 2228 4.5 21:57:11 10° NNW 22:00:47 28° W 22:03:10 17° SW
Cosmos 1892 Rocket 4.5 22:02:38 26° SE 22:04:12 34° E 22:08:06 10° NNE
GEOS 3 Rocket 4.2 22:03:41 10° NE 22:08:38 40° ESE 22:10:45 28° S
Cosmos 2227 Rocket 2.3 22:02:56 10° NNW 22:08:39 73° ENE 22:12:21 22° SE
Cosmos 1867 4.1 22:05:33 10° WSW 22:10:57 60° NW 22:16:23 10° NE
EO 1 Delta rocket 4.3 22:09:00 26° SE 22:11:30 58° ENE 22:16:40 10° N
Gbstr 26 Del rocket 4.1 22:06:35 10° WNW 22:11:48 47° SSW 22:15:20 24° SSE
Cosmos 1441 Rocket 4.2 22:11:11 25° ESE 22:11:49 26° E 22:14:47 10° NE
Cosmos 494 Rocket 4.1 22:06:59 10° NNW 22:12:09 62° WSW 22:14:39 29° S
BREEZE-M DEB (TANK) 2.4 22:12:48 10° W 22:18:38 64° S 22:19:47 32° ESE
CZ-2C R/B 4.4 22:15:55 10° N 22:20:31 52° WNW 22:23:39 19° SW
Cosmos 1048 Rocket 4.0 22:15:52 10° NNW 22:21:16 84° WSW 22:24:05 29° SSE
Cosmos 2266 Rocket 4.1 22:19:20 24° SSW 22:23:29 81° W 22:29:56 10° N
Spot 4 4.4 22:21:20 27° SSW 22:23:37 48° W 22:28:17 10° NNW
ATLAS 5 CENTAUR R/B 3.8 22:21:30 10° NNW 22:24:46 24° NNE 22:28:35 10° E
Landsat 5 3.4 22:24:29 10° N 22:28:16 65° WNW 22:29:50 32° SW
Cosmos-2242 3.7 22:27:21 10° N 22:31:25 44° ENE 22:33:26 25° SE
Cosmos 2315 Rocket 4.1 22:26:13 10° NNW 22:32:37 77° W 22:36:19 27° S
ARIANE 5 R/B 4.0 22:30:39 21° SW 22:32:37 28° W 22:36:29 10° NW
Cosmos 1315 Rocket 2.7 22:33:36 10° N 22:37:28 74° ENE 22:38:48 38° SSE
BlueWalker 3 3.2 22:34:39 10° W 22:36:56 23° WSW 22:36:56 23° WSW
Meteor 2-2 Rocket 4.5 22:35:35 10° N 22:41:12 65° ENE 22:44:34 24° SSE
Meteor 1-26 Rocket 4.4 22:38:24 10° N 22:43:45 60° ENE 22:47:00 24° SSE
Cosmos 1933 3.4 22:42:41 10° NNW 22:46:32 61° W 22:47:44 39° SSW
ATLAS 2AS CENTAUR R/B 2.7 22:43:41 10° NW 22:50:32 83° NE 22:57:03 11° SE
RESURS DK-1 4.4 22:49:48 10° WNW 22:51:53 14° WSW 22:52:29 14° WSW
CZ-2C R/B 4.1 22:50:23 10° NNE 22:54:31 29° E 22:56:42 20° SE
Cosmos 2221 4.2 22:51:08 10° N 22:54:43 26° ENE 22:57:43 13° ESE
USA 290 2.9 22:52:13 10° NNW 22:55:26 51° ENE 22:56:40 31° ESE
Cosmos 2263 Rocket 2.2 22:50:26 10° NNW 22:56:07 86° ENE 22:59:46 23° SSE
H-2A R/B 3.8 22:56:06 16° ESE 22:58:35 31° ENE 23:02:05 10° N
USA 215 3.4 22:58:07 20° SSE 23:02:43 54° SW 23:09:07 10° WNW
Cosmos 2058 4.5 23:01:15 16° WSW 23:03:26 26° WNW 23:06:48 10° N
Cosmos 2082 4.0 22:59:19 10° NNW 23:05:00 68° ENE 23:09:36 16° SE
Cosmos 1602 4.4 23:07:46 28° WSW 23:08:41 34° WNW 23:11:40 10° N
Cosmos 1812 Rocket 4.4 23:06:30 10° N 23:10:41 43° ENE 23:13:17 20° SE
Cosmos 1932 4.4 23:08:26 24° SSW 23:12:23 77° SE 23:18:48 10° NE
Cosmos 1655 Rocket 4.3 23:09:38 23° SSW 23:13:40 62° WNW 23:20:00 10° N
Nadezhda 1 Rocket 4.3 23:09:46 10° N 23:15:57 62° ENE 23:20:18 20° SSE
Cosmos 2297 Rocket 3.8 23:15:16 10° NW 23:19:11 20° W 23:21:13 16° SW
SL-16 R/B 4.1 23:17:31 12° SE 23:20:37 18° E 23:24:21 10° ENE
Cosmos 2219 3.1 23:15:28 10° NNW 23:21:11 78° WSW 23:24:45 24° SSE
Cosmos 2058 Rocket 3.6 23:17:58 10° NNW 23:22:15 46° W 23:23:59 30° SSW
Cosmos 2333 Rocket 4.4 23:23:06 10° ESE 23:25:24 13° E 23:27:42 10° ENE
Cosmos 1745 Rocket 4.5 23:24:40 22° SSE 23:28:45 55° E 23:34:56 10° NNE
Lacrosse 5 rocket 1.6 23:26:59 10° WNW 23:30:40 39° SW 23:31:05 37° SSW
Cosmos 1980 Rocket 2.1 23:28:23 27° SSW 23:31:30 78° ESE 23:37:08 10° NNE
Cosmos 1697 Rocket 3.3 23:32:03 17° SW 23:36:20 54° NW 23:41:56 10° NNE
Resurs 1-4 Rocket 4.5 23:34:21 10° NE 23:36:54 13° E 23:39:25 10° ESE
CZ-4C R/B 4.4 23:33:28 10° WNW 23:38:05 28° N 23:43:47 10° NE
CZ-2C R/B 2.7 23:36:53 24° S 23:40:19 80° WSW 23:45:58 10° NNW
SeaSat 1 4.2 23:41:31 10° ESE 23:45:51 32° NE 23:50:11 10° NNW
GEOS 3 Rocket 4.2 23:41:37 10° NE 23:46:46 57° NW 23:51:47 11° WSW
IDEFIX/ARIANE 42P 3.8 23:43:02 10° NNE 23:47:42 33° E 23:51:12 16° SSE
Cosmos 1602 Rocket 3.6 23:45:39 29° S 23:47:45 71° E 23:52:06 10° NNE
Cosmos 1758 Rocket 3.6 23:47:54 30° SSW 23:50:01 79° W 23:54:30 10° N
Cosmos 1626 Rocket 3.7 23:49:13 29° SSW 23:51:19 62° WNW 23:55:43 10° N
Cosmos 1844 Rocket 3.3 23:46:02 10° NNW 23:51:36 56° NE 23:57:06 10° SE
Cosmos 2227 Rocket 3.6 23:47:46 10° NW 23:52:08 23° WSW 23:54:06 19° SW
CENTAUR R/B 3.9 23:49:44 15° SSE 23:52:58 24° ESE 23:58:09 10° ENE
CZ-2D R/B 4.3 23:50:15 10° NE 23:53:28 16° E 23:56:39 10° SE
Geosat 4.1 23:49:04 10° NNE 23:54:04 71° NW 23:57:21 22° SW
